Weather History for Gillette, WY

Change the Weather History Date:

Sunday, December 2, 2012

  Actual Average Record
Temperature  
Mean Temperature 50 °F 26 °F  
Max Temperature 59 °F 36 °F 62 °F (1926)
Min Temperature 41 °F 15 °F -24 °F (1985)
Degree Days  
Heating Degree Days 15 39  
Month to date heating degree days 36 78  
Since 1 July heating degree days 1652 1953  
Cooling Degree Days 0 0  
Month to date cooling degree days 0 0  
Year to date cooling degree days 795 502  
Moisture  
Dew Point 30 °F    
Average Humidity 46    
Maximum Humidity 58    
Minimum Humidity 33    
Precipitation  
Precipitation 0.00 in 0.02 in 0.54 in (1982)
Month to date precipitation 0.00 0.04  
Year to date precipitation 9.01 13.53  
Sea Level Pressure  
Sea Level Pressure 29.51 in    
Wind  
Wind Speed 29 mph (SSW)    
Max Wind Speed 53 mph    
Max Gust Speed 63 mph    
Visibility 10 miles    
Events      
T = Trace of Precipitation, MM = Missing Value Source: NWS Daily Summary

Daily Weather History Graph

Daily Weather History Graph

Search for Another Location

Airport:

Trip Planner

Search our weather history database for the weather conditions in past years. The results will help you decide how hot, cold, wet, or windy it might be!

Date:

Astronomy

Dec. 02, 2012 Rise Set
Actual Time 7:19 AM MST 4:23 PM MST
Civil Twilight 6:46 AM MST 4:56 PM MST
Nautical Twilight 6:10 AM MST 5:32 PM MST
Astronomical Twilight 5:35 AM MST 6:07 PM MST
Moon 8:17 PM MST (12/2) 10:07 AM MST (12/2)
Length of Visible Light 10h 09m
Length of Day
9h 04m
Waning Gibbous, 85% of the Moon is Illuminated
Dec 2
Waning Gibbous
Dec 6
Last Quarter
Dec 13
New
Dec 19
First Quarter
Dec 28
Full

Hourly Weather History & Observations

Time (MST) Temp. Windchill Dew Point Humidity Pressure Visibility Wind Dir Wind Speed Gust Speed Precip Events Conditions
12:53 AM 45.0 °F 38.2 °F 30.0 °F 56% 29.76 in 10.0 mi SW 15.0 mph - N/A   Clear
1:53 AM 45.0 °F 37.1 °F 28.9 °F 53% 29.77 in 10.0 mi SW 19.6 mph - N/A   Clear
2:53 AM 45.0 °F 37.6 °F 28.9 °F 53% 29.78 in 10.0 mi SW 17.3 mph - N/A   Clear
3:53 AM 44.1 °F 37.1 °F 28.0 °F 53% 29.73 in 10.0 mi SSW 15.0 mph - N/A   Clear
4:53 AM 46.0 °F 38.8 °F 28.0 °F 50% 29.73 in 10.0 mi SSW 18.4 mph 28.8 mph N/A   Clear
5:53 AM 43.0 °F 35.1 °F 28.9 °F 58% 29.73 in 10.0 mi South 17.3 mph - N/A   Clear
6:53 AM 43.0 °F 34.8 °F 28.0 °F 56% 29.68 in 10.0 mi South 18.4 mph - N/A   Clear
7:53 AM 46.9 °F - 28.9 °F 50% 29.63 in 10.0 mi South 28.8 mph 40.3 mph N/A   Clear
8:53 AM 48.9 °F - 28.9 °F 46% 29.51 in 10.0 mi SSW 46.0 mph 61.0 mph N/A   Clear
9:53 AM 51.1 °F - 30.0 °F 44% 29.56 in 10.0 mi SSW 34.5 mph 49.5 mph N/A   Clear
10:53 AM 54.0 °F - 30.0 °F 40% 29.51 in 10.0 mi SSW 36.8 mph 55.2 mph N/A   Clear
11:53 AM 57.0 °F - 30.0 °F 36% 29.42 in 10.0 mi SSW 44.9 mph 58.7 mph N/A   Clear
12:53 PM 57.0 °F - 28.9 °F 34% 29.43 in 10.0 mi SSW 33.4 mph 43.7 mph N/A   Clear
1:53 PM 57.0 °F - 28.9 °F 34% 29.41 in 10.0 mi SSW 27.6 mph 43.7 mph N/A   Clear
2:53 PM 57.9 °F - 28.9 °F 33% 29.37 in 10.0 mi SSW 31.1 mph 41.4 mph N/A   Clear
3:53 PM 57.0 °F - 28.9 °F 34% 29.36 in 10.0 mi SSW 31.1 mph 40.3 mph N/A   Clear
4:53 PM 55.9 °F - 28.9 °F 36% 29.31 in 10.0 mi South 35.7 mph 47.2 mph N/A   Clear
5:53 PM 55.0 °F - 28.9 °F 37% 29.34 in 10.0 mi South 34.5 mph 48.3 mph N/A   Clear
6:53 PM 55.9 °F - 28.9 °F 36% 29.32 in 10.0 mi SSW 41.4 mph 50.6 mph N/A   Clear
7:53 PM 54.0 °F - 28.9 °F 38% 29.31 in 10.0 mi SSW 32.2 mph 48.3 mph N/A   Clear
8:53 PM 53.1 °F - 30.0 °F 41% 29.32 in 10.0 mi SSW 33.4 mph 48.3 mph N/A   Clear
9:53 PM 54.0 °F - 30.0 °F 40% 29.33 in 10.0 mi SW 33.4 mph 48.3 mph N/A   Clear
10:53 PM 53.1 °F - 30.9 °F 43% 29.40 in 10.0 mi SW 27.6 mph 39.1 mph N/A   Clear
11:20 PM 51.8 °F - 33.8 °F 50% 29.57 in 10.0 mi NW 28.8 mph 38.0 mph N/A   Mostly Cloudy
11:53 PM 44.1 °F 34.8 °F 36.0 °F 73% 29.58 in 10.0 mi NNW 25.3 mph 35.7 mph N/A   Overcast